Find Starlink 11089

NORAD ID: 59426 Int'l Des: 2024-065 Owner: SPXS Country: US Constellation: starlink operational
LEOCIRCULAR

Live Position

Loading 3D Globe...

About Starlink 11089

Description loading...

Upcoming Passes

Passes for default location (London). Set your location on the main map for personalized predictions.

Altitude History

Loading altitude history...

Two-Line Element Set

1 59426U 24065F 26126.39431948 -.00003140 00000-0 -21096-4 0 9993
2 59426 53.1599 169.6287 0000868 84.1915 275.9202 15.69683359120587
Epoch: May 6, 2026 • Age: 19 hours

Current Status

Altitude 374.6 km
Velocity 7.68 km/s
Sub-Earth Point -42.72°S, 91.94°E
Launch Date Apr 7, 2024
Age 2 years
Type internet

Technical Details

Classification Payload
Mass 960.00 kg
Dry Mass 910.00 kg
Total Mass 960.00 kg
Length 0.30 m
Diameter 4.10 m
Span 29.00 m
Shape Box + pan
Manufacturer SPXS
Bus Type Starlink V2MD
Phase Status In Orbit
Owner/State SPXS/US

Most Searched